CMP260 MPTO-TBPB

Flight info

Callsign CMP260
Flight time 2h 48m
Altitude 37000
Route PONPO DCT BOGAL DCT LOLUD DCT AKNIL UM796 MAR DCT EGDAR DCT DOLPO/N0452F390 DCT PAGAK DCT POSVA DCT OPLUD DCT VUDAL DCT SV UA511 BGI
Aircraft B38M/M-SDE1FGHILORVWXY/HB1

Departure

Time 2026-05-06 13:58
Airport Tocumen International Airport (MPTO)

Arrival

Time 2026-05-06 16:47
Airport Grantley Adams International Airport (TBPB)
Time Latitude Longitude Altitude Speed Heading
2026-05-06 13:20 9.06306 -79.38891 32 ft 0 kts 282°
2026-05-06 13:47 9.06305 -79.38884 32 ft 4 kts 281°
2026-05-06 13:47 9.06300 -79.38857 32 ft 4 kts 279°
2026-05-06 13:47 9.06296 -79.38831 32 ft 4 kts 264°
2026-05-06 13:48 9.06306 -79.38813 32 ft 4 kts 197°
2026-05-06 13:48 9.06332 -79.38810 32 ft 2 kts 185°
2026-05-06 13:48 9.06337 -79.38809 32 ft 0 kts 185°
2026-05-06 13:53 9.06336 -79.38809 32 ft 1 kts 185°
2026-05-06 13:53 9.06306 -79.38812 32 ft 9 kts 185°
2026-05-06 13:53 9.06208 -79.38824 32 ft 17 kts 199°
2026-05-06 13:54 9.06106 -79.38896 32 ft 19 kts 218°
2026-05-06 13:54 9.06026 -79.38850 32 ft 15 kts 120°
2026-05-06 13:54 9.05958 -79.38767 32 ft 16 kts 167°
2026-05-06 13:54 9.05859 -79.38812 32 ft 17 kts 209°
2026-05-06 13:55 9.05757 -79.38873 32 ft 18 kts 211°
2026-05-06 13:55 9.05647 -79.38937 32 ft 19 kts 211°
2026-05-06 13:55 9.05528 -79.39005 32 ft 20 kts 211°
2026-05-06 13:55 9.05404 -79.39078 32 ft 21 kts 206°
2026-05-06 13:56 9.05300 -79.39137 32 ft 11 kts 211°
2026-05-06 13:56 9.05229 -79.39179 32 ft 13 kts 210°
2026-05-06 13:56 9.05149 -79.39226 32 ft 14 kts 210°
2026-05-06 13:56 9.05059 -79.39275 33 ft 15 kts 206°
2026-05-06 13:57 9.04963 -79.39331 32 ft 17 kts 210°
2026-05-06 13:57 9.04855 -79.39378 33 ft 16 kts 171°
2026-05-06 13:57 9.04796 -79.39303 33 ft 12 kts 120°
2026-05-06 13:57 9.04805 -79.39239 34 ft 11 kts 27°
2026-05-06 13:58 9.04970 -79.39143 34 ft 62 kts 29°
2026-05-06 13:58 9.05576 -79.38798 34 ft 135 kts 29°
2026-05-06 13:58 9.06573 -79.38240 107 ft 186 kts 26°
2026-05-06 13:58 9.07695 -79.37543 823 ft 198 kts 41°
2026-05-06 13:59 9.08441 -79.36288 1309 ft 224 kts 76°
2026-05-06 13:59 9.08475 -79.34669 2045 ft 241 kts 93°
2026-05-06 13:59 9.08320 -79.32916 2784 ft 256 kts 93°
2026-05-06 13:59 9.08373 -79.31105 3748 ft 261 kts 79°
2026-05-06 14:00 9.08708 -79.29293 4783 ft 263 kts 79°
2026-05-06 14:00 9.09035 -79.27461 5767 ft 266 kts 79°
2026-05-06 14:00 9.09358 -79.25610 6727 ft 269 kts 80°
2026-05-06 14:00 9.09680 -79.23730 7620 ft 272 kts 81°
2026-05-06 14:01 9.10003 -79.21829 8509 ft 276 kts 81°
2026-05-06 14:01 9.10327 -79.19912 9430 ft 278 kts 81°
2026-05-06 14:01 9.10654 -79.17973 10244 ft 282 kts 81°
2026-05-06 14:01 9.10993 -79.15957 10706 ft 300 kts 81°
2026-05-06 14:02 9.11347 -79.13848 11157 ft 314 kts 81°
2026-05-06 14:02 9.11716 -79.11653 11849 ft 318 kts 81°
2026-05-06 14:02 9.12087 -79.09445 12639 ft 320 kts 81°
2026-05-06 14:02 9.12462 -79.07211 13386 ft 323 kts 81°
2026-05-06 14:03 9.12839 -79.04963 14084 ft 325 kts 81°
2026-05-06 14:03 9.13222 -79.02686 14687 ft 329 kts 81°
2026-05-06 14:03 9.13608 -79.00390 15287 ft 333 kts 81°
2026-05-06 14:03 9.13996 -78.98076 15880 ft 336 kts 81°
2026-05-06 14:04 9.14390 -78.95728 16474 ft 339 kts 81°
2026-05-06 14:04 9.14786 -78.93361 17048 ft 343 kts 81°
2026-05-06 14:04 9.15183 -78.90993 17609 ft 346 kts 81°
2026-05-06 14:04 9.15585 -78.88593 18165 ft 349 kts 81°
2026-05-06 14:05 9.15996 -78.86144 18626 ft 353 kts 81°
2026-05-06 14:05 9.16408 -78.83681 19091 ft 356 kts 81°
2026-05-06 14:05 9.16823 -78.81199 19536 ft 360 kts 81°
2026-05-06 14:05 9.17242 -78.78694 19991 ft 362 kts 80°
2026-05-06 14:06 9.17665 -78.76163 20424 ft 366 kts 80°
2026-05-06 14:06 9.18091 -78.73614 20847 ft 369 kts 80°
2026-05-06 14:06 9.18520 -78.71044 21278 ft 372 kts 80°
2026-05-06 14:06 9.18954 -78.68445 21712 ft 375 kts 80°
2026-05-06 14:07 9.19386 -78.65858 22104 ft 379 kts 80°
2026-05-06 14:07 9.19825 -78.63223 22518 ft 382 kts 80°
2026-05-06 14:07 9.20268 -78.60566 22917 ft 385 kts 80°
2026-05-06 14:07 9.20715 -78.57884 23317 ft 388 kts 80°
2026-05-06 14:08 9.21165 -78.55180 23685 ft 391 kts 80°
2026-05-06 14:08 9.21618 -78.52460 24013 ft 393 kts 80°
2026-05-06 14:08 9.22074 -78.49721 24350 ft 396 kts 80°
2026-05-06 14:08 9.22531 -78.46971 24674 ft 398 kts 80°
2026-05-06 14:09 9.22993 -78.44191 24995 ft 401 kts 80°
2026-05-06 14:09 9.23457 -78.41402 25326 ft 403 kts 79°
2026-05-06 14:09 9.23922 -78.38605 25659 ft 405 kts 79°
2026-05-06 14:09 9.24391 -78.35774 25976 ft 408 kts 79°
2026-05-06 14:10 9.24863 -78.32930 26298 ft 410 kts 79°
2026-05-06 14:10 9.25337 -78.30076 26606 ft 413 kts 79°
2026-05-06 14:10 9.25808 -78.27235 26926 ft 415 kts 79°
2026-05-06 14:10 9.26293 -78.24305 27236 ft 418 kts 79°
2026-05-06 14:11 9.26769 -78.21430 27544 ft 420 kts 79°
2026-05-06 14:11 9.27536 -78.18583 27834 ft 420 kts 67°
2026-05-06 14:11 9.28614 -78.15825 28126 ft 423 kts 68°
2026-05-06 14:11 9.29667 -78.13035 28391 ft 426 kts 68°
2026-05-06 14:12 9.30734 -78.10230 28689 ft 428 kts 68°
2026-05-06 14:12 9.31813 -78.07400 28964 ft 431 kts 68°
2026-05-06 14:12 9.32892 -78.04573 29237 ft 433 kts 68°
2026-05-06 14:12 9.33983 -78.01714 29518 ft 435 kts 68°
2026-05-06 14:13 9.35075 -77.98853 29781 ft 437 kts 68°
2026-05-06 14:13 9.36173 -77.95974 30047 ft 439 kts 68°
2026-05-06 14:13 9.37275 -77.93083 30259 ft 442 kts 68°
2026-05-06 14:13 9.38384 -77.90174 30482 ft 444 kts 68°
2026-05-06 14:14 9.39498 -77.87252 30708 ft 446 kts 68°
2026-05-06 14:14 9.40239 -77.85310 30848 ft 447 kts 68°
2026-05-06 14:14 9.41363 -77.82359 31072 ft 449 kts 68°
2026-05-06 14:14 9.42854 -77.78444 31363 ft 451 kts 68°
2026-05-06 14:15 9.43616 -77.76442 31510 ft 452 kts 68°
2026-05-06 14:15 9.44753 -77.73456 31727 ft 454 kts 68°
2026-05-06 14:15 9.45892 -77.70462 31937 ft 456 kts 68°
2026-05-06 14:15 9.47019 -77.67499 32143 ft 458 kts 68°
2026-05-06 14:16 9.48164 -77.64491 32343 ft 460 kts 68°
2026-05-06 14:16 9.49314 -77.61465 32548 ft 461 kts 68°
2026-05-06 14:16 9.50469 -77.58426 32750 ft 463 kts 68°
2026-05-06 14:16 9.51630 -77.55371 32946 ft 465 kts 68°
2026-05-06 14:17 9.52793 -77.52308 33141 ft 467 kts 68°
2026-05-06 14:17 9.53960 -77.49236 33351 ft 468 kts 68°
2026-05-06 14:17 9.55131 -77.46153 33611 ft 468 kts 68°
2026-05-06 14:17 9.56294 -77.43084 33881 ft 467 kts 69°
2026-05-06 14:18 9.57118 -77.39902 34123 ft 468 kts 81°
2026-05-06 14:18 9.57626 -77.36652 34341 ft 468 kts 79°
2026-05-06 14:18 9.58180 -77.33398 34535 ft 468 kts 79°
2026-05-06 14:18 9.58713 -77.30180 34758 ft 468 kts 79°
2026-05-06 14:19 9.59246 -77.26932 34969 ft 468 kts 79°
2026-05-06 14:19 9.59778 -77.23677 35181 ft 468 kts 79°
2026-05-06 14:19 9.60309 -77.20432 35370 ft 468 kts 79°
2026-05-06 14:19 9.60838 -77.17186 35572 ft 468 kts 79°
2026-05-06 14:20 9.61372 -77.13920 35789 ft 468 kts 79°
2026-05-06 14:20 9.61900 -77.10676 35994 ft 467 kts 79°
2026-05-06 14:20 9.62432 -77.07417 36203 ft 467 kts 79°
2026-05-06 14:20 9.62960 -77.04177 36409 ft 466 kts 79°
2026-05-06 14:21 9.63482 -77.00971 36607 ft 466 kts 79°
2026-05-06 14:21 9.64015 -76.97693 36813 ft 465 kts 79°
2026-05-06 14:21 9.64542 -76.94452 36948 ft 466 kts 79°
2026-05-06 14:21 9.65059 -76.91265 36944 ft 465 kts 79°
2026-05-06 14:22 9.66107 -76.84815 36945 ft 463 kts 79°
2026-05-06 14:22 9.67155 -76.78353 36947 ft 465 kts 79°
2026-05-06 14:23 9.68203 -76.71881 36944 ft 465 kts 80°
2026-05-06 14:23 9.69250 -76.65410 36937 ft 465 kts 80°
2026-05-06 14:24 9.70295 -76.58941 36936 ft 465 kts 80°
2026-05-06 14:24 9.71333 -76.52513 36938 ft 465 kts 80°
2026-05-06 14:25 9.72376 -76.46039 36938 ft 464 kts 80°
2026-05-06 14:25 9.73415 -76.39584 36939 ft 464 kts 80°
2026-05-06 14:26 9.74453 -76.33126 36936 ft 464 kts 80°
2026-05-06 14:26 9.75492 -76.26657 36929 ft 464 kts 80°
2026-05-06 14:27 9.76522 -76.20234 36932 ft 464 kts 80°
2026-05-06 14:27 9.77563 -76.13734 36929 ft 464 kts 80°
2026-05-06 14:28 9.78591 -76.07311 36930 ft 465 kts 80°
2026-05-06 14:28 9.79625 -76.00839 36926 ft 465 kts 80°
2026-05-06 14:29 9.80659 -75.94358 36930 ft 465 kts 80°
2026-05-06 14:29 9.81691 -75.87884 36923 ft 465 kts 80°
2026-05-06 14:30 9.82715 -75.81453 36928 ft 465 kts 80°
2026-05-06 14:30 9.83746 -75.74968 36910 ft 464 kts 80°
2026-05-06 14:31 9.84771 -75.68512 36911 ft 463 kts 80°
2026-05-06 14:31 9.85794 -75.62060 36910 ft 463 kts 80°
2026-05-06 14:32 9.86811 -75.55642 36906 ft 463 kts 80°
2026-05-06 14:32 9.87832 -75.49187 36914 ft 463 kts 80°
2026-05-06 14:33 9.88851 -75.42737 36908 ft 464 kts 80°
2026-05-06 14:33 9.89871 -75.36274 36912 ft 463 kts 80°
2026-05-06 14:34 9.90888 -75.29821 36904 ft 463 kts 80°
2026-05-06 14:34 9.91903 -75.23371 36902 ft 463 kts 80°
2026-05-06 14:35 9.92910 -75.16962 36904 ft 463 kts 80°
2026-05-06 14:35 9.93923 -75.10514 36904 ft 463 kts 80°
2026-05-06 14:36 9.94935 -75.04061 36905 ft 463 kts 80°
2026-05-06 14:36 9.95946 -74.97607 36903 ft 463 kts 80°
2026-05-06 14:37 9.97211 -74.91205 36910 ft 462 kts 77°
2026-05-06 14:37 9.98593 -74.84874 36896 ft 462 kts 77°
2026-05-06 14:38 9.99967 -74.78492 36902 ft 463 kts 77°
2026-05-06 14:38 10.01337 -74.72117 36900 ft 463 kts 77°
2026-05-06 14:39 10.02704 -74.65745 36904 ft 463 kts 77°
2026-05-06 14:39 10.04073 -74.59361 36906 ft 463 kts 77°
2026-05-06 14:40 10.05442 -74.52970 36902 ft 463 kts 77°
2026-05-06 14:40 10.06798 -74.46633 36901 ft 463 kts 77°
2026-05-06 14:41 10.08163 -74.40248 36902 ft 463 kts 77°
2026-05-06 14:41 10.09526 -74.33864 36905 ft 463 kts 77°
2026-05-06 14:42 10.10893 -74.27460 36916 ft 464 kts 77°
2026-05-06 14:42 10.12259 -74.21050 36917 ft 464 kts 77°
2026-05-06 14:43 10.13612 -74.14698 36913 ft 464 kts 77°
2026-05-06 14:43 10.14976 -74.08284 36918 ft 464 kts 77°
2026-05-06 14:44 10.16336 -74.01881 36930 ft 464 kts 77°
2026-05-06 14:45 10.18375 -73.92274 36962 ft 465 kts 77°
2026-05-06 14:45 10.19735 -73.85859 36969 ft 465 kts 77°
2026-05-06 14:46 10.21095 -73.79440 36962 ft 465 kts 77°
2026-05-06 14:46 10.22445 -73.73057 36970 ft 465 kts 77°
2026-05-06 14:47 10.23800 -73.66644 36979 ft 465 kts 77°
2026-05-06 14:47 10.25158 -73.60213 36979 ft 465 kts 77°
2026-05-06 14:48 10.26515 -73.53781 36980 ft 466 kts 77°
2026-05-06 14:48 10.27871 -73.47345 36983 ft 466 kts 77°
2026-05-06 14:49 10.29226 -73.40904 36997 ft 466 kts 77°
2026-05-06 14:49 10.30571 -73.34506 36996 ft 466 kts 77°
2026-05-06 14:50 10.31927 -73.28054 36994 ft 466 kts 77°
2026-05-06 14:50 10.33276 -73.21624 36995 ft 465 kts 77°
2026-05-06 14:51 10.34623 -73.15196 36999 ft 465 kts 77°
2026-05-06 14:51 10.35971 -73.08761 37042 ft 465 kts 77°
2026-05-06 14:52 10.37308 -73.02375 37034 ft 465 kts 77°
2026-05-06 14:52 10.38640 -72.95904 37034 ft 465 kts 81°
2026-05-06 14:53 10.39635 -72.89394 37073 ft 469 kts 81°
2026-05-06 14:53 10.40663 -72.82889 37037 ft 469 kts 81°
2026-05-06 14:54 10.41701 -72.76344 37049 ft 469 kts 81°
2026-05-06 14:54 10.42737 -72.69800 37048 ft 469 kts 81°
2026-05-06 14:55 10.43772 -72.63260 37030 ft 469 kts 81°
2026-05-06 14:55 10.44802 -72.56732 37030 ft 467 kts 81°
2026-05-06 14:56 10.45829 -72.50221 37007 ft 466 kts 81°
2026-05-06 14:56 10.46848 -72.43753 37013 ft 466 kts 81°
2026-05-06 14:57 10.47872 -72.37240 36988 ft 467 kts 81°
2026-05-06 14:57 10.48896 -72.30720 36989 ft 467 kts 81°
2026-05-06 14:58 10.49919 -72.24198 36973 ft 467 kts 81°
2026-05-06 14:58 10.50766 -72.18792 36978 ft 467 kts 81°
2026-05-06 14:59 10.51959 -72.11168 36974 ft 467 kts 81°
2026-05-06 14:59 10.52971 -72.04683 36975 ft 467 kts 81°
2026-05-06 15:00 10.53991 -71.98150 36967 ft 467 kts 81°
2026-05-06 15:00 10.55005 -71.91635 36975 ft 468 kts 81°
2026-05-06 15:01 10.55852 -71.86194 36975 ft 468 kts 81°
2026-05-06 15:01 10.56868 -71.79659 36966 ft 468 kts 81°
2026-05-06 15:02 10.57902 -71.73134 36962 ft 468 kts 77°
2026-05-06 15:02 10.58971 -71.70023 36947 ft 465 kts 63°
2026-05-06 15:02 10.60422 -71.67088 36963 ft 467 kts 64°
2026-05-06 15:03 10.63325 -71.61166 36964 ft 468 kts 63°
2026-05-06 15:03 10.66262 -71.55297 36964 ft 468 kts 63°
2026-05-06 15:04 10.69219 -71.49405 36964 ft 468 kts 63°
2026-05-06 15:04 10.72101 -71.43469 36957 ft 468 kts 71°
2026-05-06 15:05 10.73738 -71.37077 36939 ft 469 kts 76°
2026-05-06 15:05 10.75323 -71.30634 36972 ft 470 kts 76°
2026-05-06 15:06 10.76874 -71.24214 36965 ft 470 kts 76°
2026-05-06 15:06 10.78430 -71.17759 36965 ft 470 kts 76°
2026-05-06 15:07 10.79987 -71.11293 36974 ft 470 kts 76°
2026-05-06 15:07 10.81540 -71.04840 36973 ft 470 kts 76°
2026-05-06 15:08 10.83092 -70.98379 36976 ft 470 kts 76°
2026-05-06 15:08 10.84632 -70.91965 36978 ft 470 kts 76°
2026-05-06 15:09 10.86180 -70.85514 36984 ft 469 kts 76°
2026-05-06 15:09 10.87730 -70.79043 36980 ft 469 kts 76°
2026-05-06 15:10 10.89273 -70.72602 36981 ft 469 kts 76°
2026-05-06 15:10 10.90815 -70.66154 36982 ft 469 kts 76°
2026-05-06 15:11 10.92345 -70.59749 36984 ft 469 kts 76°
2026-05-06 15:11 10.93888 -70.53288 36985 ft 469 kts 77°
2026-05-06 15:12 10.95434 -70.46807 36988 ft 473 kts 77°
2026-05-06 15:12 10.96986 -70.40290 36983 ft 474 kts 77°
2026-05-06 15:13 10.98537 -70.33770 36975 ft 473 kts 77°
2026-05-06 15:13 11.00080 -70.27283 36983 ft 473 kts 77°
2026-05-06 15:14 11.01627 -70.20770 36991 ft 474 kts 76°
2026-05-06 15:14 11.03180 -70.14225 36987 ft 477 kts 77°
2026-05-06 15:15 11.04740 -70.07647 36991 ft 477 kts 77°
2026-05-06 15:15 11.06224 -70.01065 36991 ft 476 kts 79°
2026-05-06 15:16 11.07509 -69.94441 36983 ft 477 kts 79°
2026-05-06 15:16 11.08811 -69.87853 37004 ft 478 kts 79°
2026-05-06 15:17 11.10123 -69.81217 37010 ft 475 kts 79°
2026-05-06 15:17 11.11423 -69.74628 37017 ft 473 kts 79°
2026-05-06 15:18 11.12717 -69.68059 37019 ft 474 kts 79°
2026-05-06 15:18 11.14014 -69.61475 37023 ft 474 kts 79°
2026-05-06 15:19 11.15307 -69.54896 37020 ft 473 kts 79°
2026-05-06 15:19 11.16600 -69.48316 37023 ft 472 kts 79°
2026-05-06 15:20 11.17880 -69.41789 37016 ft 470 kts 79°
2026-05-06 15:20 11.19152 -69.35295 37021 ft 470 kts 79°
2026-05-06 15:21 11.20430 -69.28764 37021 ft 470 kts 79°
2026-05-06 15:21 11.21706 -69.22237 37015 ft 470 kts 79°
2026-05-06 15:22 11.22982 -69.15701 37016 ft 470 kts 79°
2026-05-06 15:22 11.24258 -69.09156 37022 ft 471 kts 79°
2026-05-06 15:23 11.25537 -69.02591 37022 ft 471 kts 79°
2026-05-06 15:23 11.26809 -68.96053 37018 ft 472 kts 79°
2026-05-06 15:24 11.28080 -68.89506 37020 ft 474 kts 79°
2026-05-06 15:24 11.29358 -68.82923 37032 ft 473 kts 79°
2026-05-06 15:25 11.30634 -68.76337 37026 ft 473 kts 79°
2026-05-06 15:25 11.31907 -68.69761 37034 ft 473 kts 79°
2026-05-06 15:26 11.33181 -68.63170 37035 ft 473 kts 79°
2026-05-06 15:26 11.34443 -68.56634 37036 ft 473 kts 79°
2026-05-06 15:27 11.35712 -68.50058 37038 ft 473 kts 79°
2026-05-06 15:27 11.36978 -68.43479 37036 ft 473 kts 79°
2026-05-06 15:28 11.38245 -68.36894 37034 ft 473 kts 79°
2026-05-06 15:28 11.39510 -68.30314 37037 ft 473 kts 79°
2026-05-06 15:29 11.40773 -68.23730 37036 ft 473 kts 79°
2026-05-06 15:29 11.42034 -68.17156 37034 ft 474 kts 79°
2026-05-06 15:30 11.43291 -68.10591 37033 ft 474 kts 79°
2026-05-06 15:30 11.44264 -68.03955 37041 ft 473 kts 87°
2026-05-06 15:31 11.44638 -67.97243 37031 ft 475 kts 87°
2026-05-06 15:31 11.45001 -67.90514 37023 ft 474 kts 87°
2026-05-06 15:32 11.45540 -67.80435 37040 ft 475 kts 87°
2026-05-06 15:32 11.45897 -67.73723 37032 ft 474 kts 87°
2026-05-06 15:33 11.46249 -67.67068 37028 ft 474 kts 87°
2026-05-06 15:33 11.46603 -67.60352 37024 ft 474 kts 87°
2026-05-06 15:34 11.46956 -67.53628 37026 ft 474 kts 87°
2026-05-06 15:34 11.47307 -67.46904 37029 ft 475 kts 87°
2026-05-06 15:35 11.47657 -67.40192 37033 ft 475 kts 87°
2026-05-06 15:35 11.48006 -67.33448 37040 ft 476 kts 87°
2026-05-06 15:36 11.48352 -67.26733 37042 ft 478 kts 87°
2026-05-06 15:36 11.48699 -67.19976 37035 ft 478 kts 87°
2026-05-06 15:37 11.49045 -67.13213 37033 ft 478 kts 87°
2026-05-06 15:37 11.49388 -67.06456 37022 ft 478 kts 87°
2026-05-06 15:38 11.49731 -66.99696 37024 ft 478 kts 87°
2026-05-06 15:38 11.50071 -66.92940 37030 ft 478 kts 87°
2026-05-06 15:39 11.50411 -66.86170 37038 ft 477 kts 87°
2026-05-06 15:39 11.50749 -66.79404 37046 ft 477 kts 87°
2026-05-06 15:40 11.51083 -66.72678 37056 ft 477 kts 87°
2026-05-06 15:40 11.51417 -66.65922 37047 ft 477 kts 87°
2026-05-06 15:41 11.51750 -66.59170 37046 ft 477 kts 87°
2026-05-06 15:41 11.52081 -66.52412 37042 ft 477 kts 87°
2026-05-06 15:42 11.52410 -66.45666 37044 ft 477 kts 87°
2026-05-06 15:42 11.52737 -66.38928 37044 ft 476 kts 87°
2026-05-06 15:43 11.53064 -66.32167 37047 ft 477 kts 87°
2026-05-06 15:43 11.53387 -66.25454 37051 ft 476 kts 87°
2026-05-06 15:44 11.53710 -66.18722 37052 ft 475 kts 87°
2026-05-06 15:44 11.54031 -66.11990 37055 ft 476 kts 87°
2026-05-06 15:45 11.55072 -66.05346 37084 ft 475 kts 79°
2026-05-06 15:45 11.56328 -65.98728 37048 ft 475 kts 78°
2026-05-06 15:46 11.57593 -65.92123 37057 ft 475 kts 78°
2026-05-06 15:46 11.58645 -65.86630 37043 ft 474 kts 78°
2026-05-06 15:47 11.60109 -65.78966 37049 ft 473 kts 78°
2026-05-06 15:47 11.61164 -65.73440 37045 ft 474 kts 78°
2026-05-06 15:48 11.62414 -65.66887 37045 ft 474 kts 78°
2026-05-06 15:48 11.63669 -65.60296 37046 ft 473 kts 79°
2026-05-06 15:49 11.64920 -65.53719 37038 ft 472 kts 78°
2026-05-06 15:49 11.66171 -65.47131 37042 ft 474 kts 79°
2026-05-06 15:50 11.67474 -65.40541 37043 ft 474 kts 72°
2026-05-06 15:50 11.69878 -65.34290 37017 ft 474 kts 68°
2026-05-06 15:51 11.72324 -65.28049 37058 ft 474 kts 67°
2026-05-06 15:51 11.74778 -65.21823 37051 ft 472 kts 67°
2026-05-06 15:52 11.77226 -65.15607 37054 ft 473 kts 67°
2026-05-06 15:52 11.79663 -65.09415 37060 ft 473 kts 68°
2026-05-06 15:53 11.82114 -65.03183 37063 ft 473 kts 67°
2026-05-06 15:53 11.84563 -64.96950 37061 ft 473 kts 68°
2026-05-06 15:54 11.86996 -64.90755 37059 ft 472 kts 68°
2026-05-06 15:54 11.89439 -64.84527 37056 ft 472 kts 68°
2026-05-06 15:55 11.91879 -64.78305 37056 ft 472 kts 68°
2026-05-06 15:55 11.94321 -64.72074 37058 ft 473 kts 68°
2026-05-06 15:56 11.96769 -64.65822 37059 ft 473 kts 68°
2026-05-06 15:56 11.99213 -64.59575 37059 ft 474 kts 68°
2026-05-06 15:57 12.01656 -64.53326 37059 ft 474 kts 68°
2026-05-06 15:57 12.04094 -64.47084 37060 ft 473 kts 68°
2026-05-06 15:58 12.06516 -64.40880 37063 ft 473 kts 68°
2026-05-06 15:58 12.08959 -64.34615 37068 ft 473 kts 68°
2026-05-06 15:59 12.11396 -64.28364 37063 ft 472 kts 68°
2026-05-06 15:59 12.13826 -64.22126 37065 ft 473 kts 68°
2026-05-06 16:00 12.16240 -64.15924 37065 ft 473 kts 68°
2026-05-06 16:00 12.18669 -64.09677 37066 ft 473 kts 68°
2026-05-06 16:01 12.21102 -64.03414 37063 ft 474 kts 68°
2026-05-06 16:01 12.23539 -63.97140 37065 ft 474 kts 68°
2026-05-06 16:02 12.25973 -63.90867 37064 ft 474 kts 68°
2026-05-06 16:02 12.28405 -63.84593 37066 ft 474 kts 68°
2026-05-06 16:03 12.30834 -63.78323 37066 ft 474 kts 68°
2026-05-06 16:03 12.33258 -63.72061 37068 ft 474 kts 68°
2026-05-06 16:04 12.35670 -63.65826 37067 ft 474 kts 68°
2026-05-06 16:04 12.38099 -63.59540 37069 ft 474 kts 68°
2026-05-06 16:05 12.40520 -63.53274 37069 ft 474 kts 68°
2026-05-06 16:05 12.42944 -63.46993 37068 ft 474 kts 68°
2026-05-06 16:06 12.45322 -63.40699 37061 ft 474 kts 72°
2026-05-06 16:06 12.47330 -63.34255 37074 ft 476 kts 72°
2026-05-06 16:07 12.49382 -63.27821 37068 ft 475 kts 72°
2026-05-06 16:07 12.51423 -63.21433 37067 ft 475 kts 72°
2026-05-06 16:08 12.53476 -63.15005 37068 ft 476 kts 72°
2026-05-06 16:08 12.55530 -63.08569 37070 ft 475 kts 72°
2026-05-06 16:09 12.57578 -63.02145 37069 ft 475 kts 72°
2026-05-06 16:09 12.59627 -62.95713 37069 ft 475 kts 72°
2026-05-06 16:10 12.61672 -62.89286 37070 ft 475 kts 72°
2026-05-06 16:10 12.63716 -62.82857 37071 ft 475 kts 72°
2026-05-06 16:11 12.65748 -62.76462 37073 ft 474 kts 72°
2026-05-06 16:11 12.67786 -62.70038 37074 ft 474 kts 72°
2026-05-06 16:12 12.69838 -62.63569 37071 ft 474 kts 72°
2026-05-06 16:12 12.71862 -62.57180 37070 ft 475 kts 72°
2026-05-06 16:13 12.73893 -62.50762 37071 ft 474 kts 72°
2026-05-06 16:13 12.75925 -62.44335 37069 ft 474 kts 72°
2026-05-06 16:14 12.77955 -62.37908 37070 ft 474 kts 72°
2026-05-06 16:14 12.79984 -62.31481 37072 ft 474 kts 72°
2026-05-06 16:15 12.82013 -62.25046 37071 ft 474 kts 72°
2026-05-06 16:15 12.84040 -62.18612 37071 ft 474 kts 72°
2026-05-06 16:16 12.86064 -62.12182 37071 ft 474 kts 72°
2026-05-06 16:16 12.88071 -62.05796 37071 ft 474 kts 72°
2026-05-06 16:17 12.90094 -61.99358 37071 ft 474 kts 72°
2026-05-06 16:17 12.92112 -61.92927 37031 ft 471 kts 72°
2026-05-06 16:18 12.93110 -61.89745 36446 ft 469 kts 72°
2026-05-06 16:18 12.94116 -61.86535 35578 ft 475 kts 72°
2026-05-06 16:18 12.95129 -61.83303 34958 ft 475 kts 72°
2026-05-06 16:18 12.96132 -61.80100 34524 ft 470 kts 72°
2026-05-06 16:19 12.97126 -61.76926 34078 ft 467 kts 72°
2026-05-06 16:19 12.98104 -61.73801 33507 ft 465 kts 72°
2026-05-06 16:19 12.99089 -61.70653 32929 ft 463 kts 72°
2026-05-06 16:19 13.00070 -61.67515 32417 ft 460 kts 72°
2026-05-06 16:20 13.01042 -61.64402 31934 ft 457 kts 72°
2026-05-06 16:20 13.02010 -61.61305 31454 ft 454 kts 72°
2026-05-06 16:20 13.02969 -61.58232 30960 ft 452 kts 72°
2026-05-06 16:20 13.03925 -61.55169 30469 ft 450 kts 72°
2026-05-06 16:21 13.04875 -61.52122 29959 ft 448 kts 72°
2026-05-06 16:21 13.05825 -61.49075 29409 ft 446 kts 72°
2026-05-06 16:21 13.06765 -61.46058 28934 ft 443 kts 72°
2026-05-06 16:21 13.07699 -61.43059 28509 ft 438 kts 72°
2026-05-06 16:22 13.08611 -61.40132 28070 ft 435 kts 72°
2026-05-06 16:22 13.09538 -61.37152 27623 ft 431 kts 72°
2026-05-06 16:22 13.10432 -61.34280 27194 ft 428 kts 72°
2026-05-06 16:22 13.11334 -61.31381 26774 ft 425 kts 72°
2026-05-06 16:23 13.12232 -61.28491 26345 ft 423 kts 72°
2026-05-06 16:23 13.13123 -61.25626 25930 ft 420 kts 72°
2026-05-06 16:23 13.13882 -61.22747 25434 ft 420 kts 83°
2026-05-06 16:23 13.13853 -61.19750 24947 ft 419 kts 97°
2026-05-06 16:24 13.13618 -61.16817 24615 ft 414 kts 94°
2026-05-06 16:24 13.13423 -61.13878 24216 ft 412 kts 94°
2026-05-06 16:24 13.13216 -61.10911 23799 ft 411 kts 94°
2026-05-06 16:24 13.13012 -61.08038 23329 ft 410 kts 94°
2026-05-06 16:25 13.12803 -61.05129 22871 ft 407 kts 94°
2026-05-06 16:25 13.12595 -61.02243 22461 ft 404 kts 94°
2026-05-06 16:25 13.12388 -60.99383 22048 ft 400 kts 94°
2026-05-06 16:25 13.12183 -60.96543 21642 ft 397 kts 94°
2026-05-06 16:26 13.11979 -60.93729 21229 ft 394 kts 94°
2026-05-06 16:26 13.11776 -60.90932 20824 ft 391 kts 94°
2026-05-06 16:26 13.11576 -60.88168 20437 ft 388 kts 93°
2026-05-06 16:26 13.11375 -60.85416 20049 ft 385 kts 94°
2026-05-06 16:27 13.11176 -60.82690 19665 ft 382 kts 93°
2026-05-06 16:27 13.10979 -60.79978 19284 ft 380 kts 93°
2026-05-06 16:27 13.10784 -60.77307 18905 ft 369 kts 93°
2026-05-06 16:27 13.10597 -60.74760 18552 ft 357 kts 92°
2026-05-06 16:28 13.10414 -60.72265 18164 ft 345 kts 92°
2026-05-06 16:28 13.10237 -60.69845 17793 ft 334 kts 93°
2026-05-06 16:28 13.10066 -60.67512 17447 ft 322 kts 92°
2026-05-06 16:28 13.09900 -60.65261 17121 ft 311 kts 92°
2026-05-06 16:29 13.09738 -60.63066 16801 ft 307 kts 92°
2026-05-06 16:29 13.09579 -60.60889 16489 ft 304 kts 92°
2026-05-06 16:29 13.09418 -60.58728 16184 ft 302 kts 92°
2026-05-06 16:29 13.09261 -60.56598 15877 ft 299 kts 91°
2026-05-06 16:30 13.09104 -60.54470 15559 ft 297 kts 91°
2026-05-06 16:30 13.09052 -60.53760 15465 ft 296 kts 92°
2026-05-06 16:30 13.08794 -60.50278 14951 ft 294 kts 92°
2026-05-06 16:30 13.08638 -60.48172 14647 ft 298 kts 91°
2026-05-06 16:31 13.08479 -60.46036 14345 ft 301 kts 92°
2026-05-06 16:31 13.08322 -60.43922 14038 ft 300 kts 92°
2026-05-06 16:31 13.08164 -60.41795 13712 ft 298 kts 92°
2026-05-06 16:31 13.08006 -60.39678 13375 ft 296 kts 92°
2026-05-06 16:32 13.07849 -60.37584 13058 ft 294 kts 92°
2026-05-06 16:32 13.07694 -60.35505 12752 ft 291 kts 92°
2026-05-06 16:32 13.07540 -60.33445 12451 ft 288 kts 92°
2026-05-06 16:32 13.07438 -60.32088 12253 ft 286 kts 93°
2026-05-06 16:33 13.07287 -60.30065 11954 ft 283 kts 93°
2026-05-06 16:33 13.07087 -60.27407 11572 ft 280 kts 94°
2026-05-06 16:33 13.06986 -60.26067 11373 ft 278 kts 94°
2026-05-06 16:34 13.06643 -60.21511 10702 ft 273 kts 95°
2026-05-06 16:34 13.06547 -60.20224 10521 ft 272 kts 95°
2026-05-06 16:34 13.06402 -60.18302 10258 ft 268 kts 95°
2026-05-06 16:34 13.06261 -60.16419 10102 ft 262 kts 96°
2026-05-06 16:35 13.06122 -60.14569 9834 ft 259 kts 95°
2026-05-06 16:35 13.05981 -60.12710 9540 ft 264 kts 96°
2026-05-06 16:35 13.05789 -60.10169 9149 ft 267 kts 96°
2026-05-06 16:35 13.05694 -60.08912 8947 ft 267 kts 95°
2026-05-06 16:36 13.05550 -60.07013 8660 ft 267 kts 96°
2026-05-06 16:36 13.05406 -60.05117 8382 ft 267 kts 95°
2026-05-06 16:36 13.05261 -60.03216 8094 ft 267 kts 96°
2026-05-06 16:36 13.05118 -60.01328 7804 ft 265 kts 95°
2026-05-06 16:37 13.04975 -59.99453 7519 ft 263 kts 95°
2026-05-06 16:37 13.04834 -59.97592 7252 ft 260 kts 95°
2026-05-06 16:37 13.04693 -59.95746 6969 ft 258 kts 96°
2026-05-06 16:37 13.04553 -59.93917 6691 ft 256 kts 96°
2026-05-06 16:38 13.04414 -59.92102 6412 ft 254 kts 95°
2026-05-06 16:38 13.04278 -59.90319 6126 ft 252 kts 95°
2026-05-06 16:38 13.04141 -59.88531 5857 ft 250 kts 96°
2026-05-06 16:38 13.04005 -59.86762 5579 ft 248 kts 95°
2026-05-06 16:39 13.03871 -59.85011 5306 ft 245 kts 95°
2026-05-06 16:39 13.03738 -59.83271 5050 ft 243 kts 95°
2026-05-06 16:39 13.03606 -59.81553 4864 ft 238 kts 95°
2026-05-06 16:39 13.03479 -59.79892 4726 ft 231 kts 95°
2026-05-06 16:40 13.03357 -59.78303 4604 ft 222 kts 94°
2026-05-06 16:40 13.03237 -59.76749 4467 ft 214 kts 94°
2026-05-06 16:40 13.03122 -59.75259 4366 ft 204 kts 95°
2026-05-06 16:40 13.03015 -59.73870 4343 ft 187 kts 94°
2026-05-06 16:41 13.02913 -59.72553 3966 ft 189 kts 94°
2026-05-06 16:41 13.02806 -59.71154 3353 ft 203 kts 93°
2026-05-06 16:41 13.02695 -59.69715 3124 ft 194 kts 94°
2026-05-06 16:41 13.02788 -59.68434 3102 ft 170 kts 77°
2026-05-06 16:42 13.03054 -59.67332 3054 ft 148 kts 77°
2026-05-06 16:42 13.03285 -59.66362 2939 ft 137 kts 77°
2026-05-06 16:42 13.03505 -59.65447 2901 ft 124 kts 78°
2026-05-06 16:42 13.03718 -59.64561 2386 ft 133 kts 79°
2026-05-06 16:43 13.03938 -59.63639 1988 ft 132 kts 77°
2026-05-06 16:43 13.04155 -59.62729 1997 ft 131 kts 78°
2026-05-06 16:43 13.04374 -59.61818 1983 ft 132 kts 78°
2026-05-06 16:43 13.04591 -59.60912 1969 ft 133 kts 78°
2026-05-06 16:44 13.04813 -59.59987 1996 ft 133 kts 77°
2026-05-06 16:44 13.05040 -59.59069 1999 ft 132 kts 78°
2026-05-06 16:44 13.05264 -59.58157 1982 ft 132 kts 77°
2026-05-06 16:44 13.05490 -59.57239 1930 ft 133 kts 77°
2026-05-06 16:45 13.05713 -59.56306 1603 ft 134 kts 77°
2026-05-06 16:45 13.05944 -59.55388 1304 ft 132 kts 76°
2026-05-06 16:45 13.06181 -59.54488 1053 ft 129 kts 76°
2026-05-06 16:45 13.06378 -59.53592 825 ft 128 kts 77°
2026-05-06 16:46 13.06588 -59.52701 618 ft 130 kts 73°
2026-05-06 16:46 13.06821 -59.51807 427 ft 129 kts 77°
2026-05-06 16:46 13.07043 -59.50930 254 ft 127 kts 77°
2026-05-06 16:46 13.07247 -59.50089 183 ft 110 kts 77°
2026-05-06 16:47 13.07393 -59.49497 178 ft 56 kts 76°
2026-05-06 16:47 13.07475 -59.49164 178 ft 34 kts 76°
2026-05-06 16:47 13.07513 -59.49027 177 ft 19 kts 64°
2026-05-06 16:47 13.07572 -59.48956 178 ft 11 kts 47°
2026-05-06 16:48 13.07624 -59.48898 179 ft 12 kts 47°
2026-05-06 16:48 13.07680 -59.48839 179 ft 12 kts 45°
2026-05-06 16:48 13.07742 -59.48774 180 ft 14 kts 48°
2026-05-06 16:48 13.07787 -59.48686 180 ft 13 kts 76°
2026-05-06 16:49 13.07807 -59.48610 180 ft 9 kts 58°
2026-05-06 16:49 13.07851 -59.48608 180 ft 3 kts 345°
2026-05-06 16:49 13.07881 -59.48616 180 ft 6 kts 345°
2026-05-06 16:49 13.07910 -59.48623 180 ft 3 kts 346°
2026-05-06 16:50 13.07913 -59.48624 180 ft 0 kts 346°